Location: Pataukunk
(41.7918°N, 74.3060°W)
Time: 19:36:25
(UTC+00:00)

Daily predictions for brighter satellites

Satellite Brightness Start Highest point End
(mag) Time Altitude Azimuth Time Altitude Azimuth Time Altitude Azimuth
Nadezhda 3 Rocket 4.1 23:10:22 10° N 23:16:47 79° E 23:23:08 10° S
Cosmos 1470 Rocket 3.7 23:15:23 10° S 23:19:51 83° W 23:24:18 10° N
CZ-2C R/B 3.4 23:16:50 10° NNE 23:21:35 31° E 23:26:12 10° SSE
ATLAS CENTAUR R/B 3.1 23:18:45 10° WSW 23:21:58 28° NW 23:25:12 10° NNE
Cosmos 1666 3.1 23:21:22 10° SSE 23:24:50 38° E 23:28:20 10° NNE
Cosmos 2154 Rocket 4.2 23:18:53 10° S 23:25:06 80° W 23:31:20 10° N
SKYMED 2 4.2 23:21:04 10° N 23:25:23 63° WNW 23:29:39 10° SSW
COSMOS 2428 3.1 23:23:21 10° S 23:28:38 42° ESE 23:33:57 10° NE
SL-16 R/B 4.3 23:26:42 10° WSW 23:31:32 28° NW 23:36:24 10° N
Cosmos 1703 Rocket 3.6 23:31:51 10° N 23:36:10 58° E 23:40:26 10° SSE
Okean-O 2.6 23:35:36 10° SSE 23:39:59 72° ENE 23:44:25 10° N
Cosmos 1933 Rocket 3.8 23:35:54 10° SSW 23:40:14 75° W 23:44:40 10° N
NOSS 3-2 (A) 3.7 23:37:44 10° S 23:42:47 39° ESE 23:48:27 10° NE
Cosmos 1500 4.2 23:40:48 10° SSW 23:44:24 49° W 23:48:02 10° N
SL-8 Rocket 4.0 23:39:43 10° S 23:45:48 60° E 23:51:53 10° NNE
CZ-2C R/B 4.4 23:40:48 10° S 23:46:14 47° W 23:51:27 10° NNW
FALCON 9 DEB 4.5 23:46:04 10° NNW 23:48:42 23° NNE 23:50:25 15° ENE
CSL-04 Rocket 3.8 23:43:28 10° SSE 23:48:51 55° ENE 23:54:12 10° N
Cosmos 2322 3.8 23:43:30 10° SSW 23:49:14 87° WNW 23:54:59 10° NNE
ASTEX 1 4.3 23:47:42 10° NNE 23:51:44 25° E 23:55:45 10° SE
H-2A R/B 2.4 23:47:34 10° S 23:53:01 75° WSW 23:58:27 10° NNW
Cosmos 1844 Rocket 3.4 23:48:06 10° NNW 23:53:33 57° WSW 23:58:59 10° S
CENTAUR R/B 3.1 23:48:55 10° S 23:53:52 32° ESE 23:59:33 10° NE
Cosmos 1777 Rocket 3.9 23:48:39 10° NNW 23:53:53 71° ENE 23:59:03 10° SSE
Abrixas rocket 2.3 23:53:47 10° NW 23:56:08 37° NNE 23:57:04 25° ENE
FALCON 9 DEB 4.2 23:53:41 10° NW 23:56:29 28° NNE 23:57:52 20° ENE
